Location: Morisset
(33.1080°S, 151.4871°E)
Time: 09:10:12
(UTC+00:00)

Cosmos 2297 - Pass Details

Date: 29 October 2020
Orbit: 837 x 857 km, 71.0° (Epoch: 27 November)

Event Time Altitude Azimuth Distance (km) Brightness Sun altitude
Exits shadow 16:11:04 60° 188° (S) 985 4.1 -30.6°
Drops below altitude 10° 16:15:52 10° 163° (SSE) 2,517 6.9 -29.8°
Sets 16:18:22 0° 161° (SSE) 3,461 7.8 -29.5°
